Theta_e
339 338 343 345 347 347 347 345 344 343 340 339 337 336 334 331 329 327 327 328 330 330 329 331 333 335 337 338 339 340 340 341 340 341 340 339 337 334 332 332 332 331 328 329 329 330 333 334 336 337 336 336 336 334 331 332 332 333 333 334 336 336 336 335 334 334 334 334 334 333 333 333 331 330 329 328 328 328 328 328 329 329 330 330 331
338 337 341 345 348 348 347 345 344 343 339 338 337 336 334 332 329 328 327 328 330 329 328 330 333 334 337 338 338 337 336 336 336 336 335 335 335 335 335 335 336 334 330 328 326 328 332 334 337 337 336 336 336 335 334 335 333 334 336 335 336 336 336 335 334 334 335 334 331 331 332 331 329 327 327 326 325 325 324 326 329 330 330 330 330
337 337 338 343 347 347 347 345 345 343 339 337 336 336 335 333 330 328 327 327 329 329 327 327 330 332 333 335 334 332 332 333 332 331 332 333 335 335 335 335 335 333 329 326 326 330 335 337 338 337 336 336 335 335 335 335 333 336 336 334 336 335 335 336 335 335 333 331 329 330 330 329 330 328 326 324 325 325 325 327 329 329 329 329 329
337 335 337 342 344 345 347 346 345 343 340 337 336 335 335 333 331 329 327 328 328 329 328 327 328 329 330 331 331 330 330 330 330 330 332 332 334 333 333 336 335 332 329 328 330 333 336 337 338 337 336 336 335 335 335 334 334 336 335 334 335 335 335 336 336 335 332 332 331 329 328 329 331 329 326 326 328 328 328 328 328 329 328 328 328
335 334 337 340 341 342 346 347 345 344 340 336 335 335 335 334 331 329 327 327 327 328 329 329 328 328 329 330 330 331 331 330 330 329 330 330 331 332 335 337 337 335 332 331 333 334 335 337 337 337 336 336 336 335 334 333 333 334 335 334 335 335 336 336 336 333 332 331 329 328 329 331 331 330 329 329 328 328 328 328 328 329 329 329 328
333 334 337 340 341 339 342 346 346 344 340 337 336 335 335 334 332 329 327 326 326 328 329 330 329 329 329 330 331 331 331 331 332 332 331 331 331 334 336 337 337 337 335 332 334 334 336 337 336 336 337 336 336 334 333 333 333 333 333 335 335 335 336 336 334 332 330 329 329 330 330 329 330 331 330 328 327 328 329 327 327 327 327 328 329
332 335 340 342 341 338 339 343 345 345 342 338 335 335 335 334 333 331 328 326 326 327 329 330 330 331 331 331 331 332 332 332 334 335 335 337 337 337 336 336 336 337 335 333 333 333 335 337 336 336 336 335 334 333 333 333 333 332 334 335 334 334 335 335 333 331 328 327 329 330 328 328 329 329 328 330 329 327 328 328 327 327 327 327 328
332 336 340 340 340 338 336 339 343 345 343 341 337 335 335 334 334 331 329 327 326 327 329 330 330 332 332 332 332 332 333 335 335 335 336 338 339 339 337 337 338 337 336 335 334 333 335 337 337 336 335 334 333 333 332 331 332 332 333 333 333 333 332 332 332 329 326 327 329 331 331 331 331 330 329 330 329 327 328 328 327 326 327 326 327
332 333 335 336 338 338 335 336 341 343 345 343 340 337 335 335 335 333 331 329 327 326 329 331 331 331 332 332 332 332 332 334 336 336 337 336 337 338 338 338 339 338 335 335 335 334 334 336 336 336 334 333 332 332 331 330 330 330 330 329 330 331 331 330 329 326 326 329 331 331 332 331 331 330 330 329 328 327 326 325 324 325 324 324 327
332 332 332 333 338 339 336 336 338 341 344 345 344 340 338 336 335 334 331 329 328 327 329 331 331 331 332 332 332 332 332 334 337 337 337 335 336 336 335 336 338 336 333 334 335 333 334 335 335 335 334 333 332 332 331 331 330 328 327 326 326 328 329 328 326 325 327 329 330 330 331 331 332 332 331 329 326 324 324 323 325 325 324 326 328
332 331 331 333 337 338 336 336 337 339 342 344 346 343 342 339 337 335 332 330 329 328 329 331 332 332 331 333 333 332 332 333 335 337 338 337 337 336 333 334 336 334 332 333 335 333 333 334 335 335 334 333 334 333 331 332 331 330 329 328 327 326 326 327 325 326 329 328 328 331 332 332 332 331 330 328 325 324 325 326 326 322 321 326 328
333 331 330 332 333 333 334 336 337 339 341 344 345 344 343 342 340 337 334 331 329 329 329 332 333 333 332 333 334 333 333 332 334 338 339 339 338 336 334 334 334 333 331 330 333 333 332 333 334 335 334 333 333 332 332 333 332 332 332 331 330 327 326 327 327 328 329 329 330 332 332 331 331 330 329 328 326 326 327 327 326 322 321 326 327
333 332 331 330 332 332 333 336 337 339 340 343 345 344 343 343 342 340 337 333 331 330 331 332 333 334 334 334 334 333 333 333 334 337 338 338 336 335 334 334 333 333 331 328 331 333 332 332 332 333 332 332 332 331 333 333 333 332 331 331 331 329 325 326 327 328 329 329 330 331 330 329 330 330 329 327 326 327 328 326 325 324 324 325 325
332 331 331 332 335 335 335 337 338 339 340 342 344 344 344 343 343 342 340 336 333 332 332 333 333 334 334 334 335 333 332 333 334 336 338 337 336 336 334 333 332 331 331 328 329 331 331 330 329 330 331 331 331 331 332 331 331 329 329 330 332 331 327 326 326 327 328 328 329 329 328 329 330 330 328 327 327 328 328 326 324 324 324 325 325
332 332 335 337 339 339 339 339 339 340 341 342 343 343 344 343 343 343 341 339 335 333 334 334 333 335 334 334 335 334 333 333 334 336 337 337 336 336 334 333 332 330 331 329 328 328 329 328 327 328 329 330 329 330 329 329 329 325 326 330 332 332 329 328 328 327 327 327 328 327 328 331 331 329 329 328 328 328 327 326 325 324 324 325 325
332 334 337 339 339 340 341 340 341 341 341 342 342 342 343 342 342 343 342 340 337 334 335 335 334 334 334 334 335 334 334 333 334 335 337 337 337 336 334 333 332 330 331 331 330 328 328 328 327 326 326 328 327 328 327 326 325 321 325 330 332 332 330 330 330 329 327 326 327 326 327 330 330 330 330 328 328 328 326 325 324 324 323 324 324
333 334 337 339 338 339 339 339 339 339 340 341 341 342 342 342 342 343 343 342 339 336 336 335 335 335 334 334 335 335 335 335 335 335 336 336 336 336 334 333 331 329 329 330 330 330 329 328 327 325 324 324 324 326 325 322 320 320 327 330 331 332 331 329 331 331 328 326 326 326 326 327 329 330 330 329 328 327 326 325 323 323 324 324 324
334 334 335 337 336 336 335 334 335 337 338 340 341 342 343 343 342 342 342 343 340 337 337 337 336 335 334 335 336 336 335 335 335 335 335 335 335 334 334 333 330 328 327 328 329 330 331 330 328 326 326 324 322 321 322 320 318 321 328 329 329 331 331 330 331 331 329 326 325 325 325 326 328 330 330 328 327 327 327 325 324 323 323 323 324
336 336 335 334 333 331 329 329 332 334 337 338 340 341 342 342 341 341 342 342 340 338 338 337 336 335 335 335 335 335 335 335 335 334 334 334 332 333 334 332 331 329 327 326 327 328 331 332 330 328 327 325 322 320 320 319 319 323 328 328 329 330 331 331 331 331 329 326 325 324 324 325 326 329 330 326 324 327 327 324 323 323 322 321 322
337 337 335 331 330 328 327 328 329 332 334 335 338 340 341 340 339 340 341 341 340 339 338 337 336 335 334 333 333 333 334 335 334 333 333 333 330 330 333 333 332 330 327 326 325 326 329 333 332 330 328 326 324 321 320 319 321 325 327 327 328 329 330 331 331 331 329 326 325 324 324 324 325 328 328 326 325 326 325 323 321 322 324 321 321
337 337 333 329 327 328 329 332 330 329 330 332 335 338 339 339 338 339 341 340 339 339 339 338 335 335 334 332 331 332 333 334 334 333 331 330 329 329 331 332 332 329 326 326 325 325 325 330 333 332 329 327 325 324 322 319 323 326 326 327 329 329 330 331 332 331 328 326 326 325 325 324 325 328 327 326 326 323 322 323 322 321 319 317 320
337 336 334 331 328 329 331 332 332 329 328 330 332 335 337 338 338 340 340 340 339 339 339 338 336 335 335 330 329 331 333 333 333 333 330 329 329 329 330 330 330 328 325 325 324 324 324 325 330 332 330 327 325 324 323 322 325 326 326 328 329 329 330 330 331 331 328 326 326 326 325 325 327 328 327 326 325 322 320 324 325 321 316 314 319
337 336 335 334 331 331 332 331 331 330 328 329 330 331 335 337 337 339 339 339 338 339 339 338 336 336 334 331 330 331 333 333 332 332 330 331 330 329 330 329 329 328 325 324 322 323 324 322 325 330 331 328 325 324 324 324 325 325 325 328 329 329 330 330 331 330 328 327 326 326 324 325 328 328 327 326 324 321 319 323 325 323 318 310 314
337 336 337 336 334 332 331 331 331 331 330 330 329 329 331 334 336 337 338 338 338 338 337 337 336 335 334 333 333 333 334 332 332 333 331 332 332 330 329 329 330 330 327 323 322 323 323 321 323 329 331 327 325 324 323 324 323 323 325 328 329 329 330 330 331 330 328 327 326 326 325 325 328 328 327 325 324 320 317 322 325 324 321 311 311
335 336 337 336 334 332 331 333 333 332 332 331 331 329 328 329 330 332 335 336 337 337 337 337 336 335 334 334 334 334 334 332 332 334 333 331 332 331 331 330 329 329 327 323 321 321 321 320 322 328 328 325 324 324 323 323 322 322 325 328 328 328 330 330 330 330 328 327 326 326 325 325 326 328 328 325 323 320 318 322 324 323 321 316 314
335 336 335 333 332 332 333 333 334 334 333 333 333 332 330 329 327 327 330 331 333 334 336 336 336 336 334 334 334 335 334 332 331 333 334 331 331 332 331 331 329 328 325 322 320 320 320 320 321 325 326 324 324 324 323 322 322 321 324 328 328 327 329 329 329 329 328 326 326 326 326 325 326 327 329 327 323 322 321 321 322 322 319 318 318
335 334 333 332 333 334 333 333 333 333 333 334 334 334 333 331 329 327 326 328 328 330 332 332 333 335 335 335 335 335 333 332 333 332 333 333 332 332 331 329 328 326 322 320 320 320 321 321 321 324 325 324 324 323 322 322 321 321 324 326 327 328 328 329 329 329 327 326 327 327 326 326 325 327 328 328 325 323 322 321 321 323 320 318 321
335 333 333 333 333 334 333 332 332 332 332 333 333 334 334 333 330 329 328 328 328 328 329 329 330 332 333 334 336 334 332 333 334 333 333 332 333 333 332 330 328 324 319 318 321 321 321 321 322 323 324 323 322 323 324 324 323 321 322 324 325 327 328 328 328 328 327 326 327 327 327 326 326 326 327 327 326 325 324 322 322 323 321 319 320
335 334 334 334 333 333 333 332 331 332 332 332 333 334 335 334 332 332 331 331 331 329 328 329 329 331 332 333 335 333 332 333 334 334 334 333 333 334 333 332 328 323 318 317 321 321 321 321 322 323 322 322 323 325 326 327 327 323 321 322 323 326 328 328 328 327 327 327 328 327 327 327 326 326 326 326 326 326 325 323 323 322 319 317 318
335 335 335 334 333 333 334 333 331 331 332 332 333 334 334 334 333 334 333 334 333 332 331 330 331 331 332 333 334 334 334 335 335 335 334 334 334 334 334 333 327 323 319 316 320 321 320 321 321 322 323 324 326 327 327 327 327 326 322 321 321 325 329 329 329 328 326 327 328 328 328 327 327 326 325 326 325 326 327 325 324 324 321 317 316
335 335 335 334 333 333 333 333 332 332 332 332 333 334 334 333 333 334 334 334 335 335 334 333 334 333 332 333 334 334 334 335 335 334 333 334 335 334 335 334 328 324 319 316 319 320 319 320 319 321 322 325 327 327 327 326 326 326 325 323 323 326 330 330 330 330 327 327 328 328 328 327 326 326 326 325 324 326 328 328 327 326 325 322 319
334 335 335 334 333 333 330 330 331 332 333 333 333 334 332 332 331 330 332 335 335 334 334 335 335 334 334 334 334 334 334 334 334 334 333 333 335 334 335 334 329 325 321 317 318 319 320 320 321 322 323 325 326 325 325 325 326 327 328 327 326 327 329 329 330 330 328 327 328 328 328 328 327 327 326 325 325 325 327 329 329 328 326 325 322
332 332 333 332 331 329 326 326 329 331 332 332 332 330 327 325 323 324 330 335 336 334 334 335 335 334 335 334 334 334 334 334 334 334 334 333 334 334 334 334 331 328 327 323 319 319 319 320 321 322 323 323 323 323 325 326 327 329 329 329 328 328 328 329 329 329 329 328 328 329 328 328 328 327 327 326 325 324 326 328 329 329 328 327 325
328 328 329 327 326 324 323 325 328 330 330 329 328 325 323 322 320 320 325 329 330 333 334 334 333 334 334 334 335 335 334 334 334 335 335 334 334 334 334 334 334 333 331 328 325 321 320 320 321 322 323 324 325 327 329 329 329 329 330 330 329 328 328 329 329 329 328 328 328 329 329 329 328 328 327 327 326 325 325 326 328 329 329 328 327
324 324 324 323 322 321 322 325 328 328 326 326 324 323 322 322 321 321 322 322 323 327 331 331 332 333 332 332 334 334 334 333 333 334 334 334 333 333 334 334 334 333 332 331 330 328 325 324 324 325 326 328 330 330 331 330 330 329 330 330 330 329 328 328 328 328 328 328 328 328 328 329 328 328 328 327 327 326 326 326 327 328 328 328 327
322 321 321 320 320 320 322 325 326 326 324 324 323 322 322 321 321 322 322 322 320 321 324 327 329 329 328 327 329 330 331 331 331 332 333 333 332 333 333 333 334 333 333 332 332 332 331 329 327 328 329 329 329 330 330 330 331 331 330 331 331 330 328 328 327 326 326 327 327 327 327 328 328 328 329 328 328 327 326 326 326 327 327 327 327
320 319 319 318 318 319 321 323 324 323 322 322 321 321 320 320 321 322 323 322 320 320 321 322 323 324 323 322 323 324 325 328 330 331 331 332 332 332 333 333 333 333 333 332 333 333 333 331 330 329 329 329 330 329 328 330 332 332 332 331 331 330 329 328 327 326 326 326 325 326 327 327 328 328 328 328 329 328 328 327 326 327 327 327 327
318 318 318 317 318 319 320 322 323 322 321 321 320 319 318 318 320 322 322 320 317 319 321 321 322 323 323 322 322 321 324 328 330 330 331 332 331 331 331 332 333 332 332 332 334 334 334 333 331 331 330 330 331 328 326 330 333 332 332 332 332 331 329 329 328 328 328 327 326 327 326 327 327 328 328 328 329 329 328 328 326 326 327 327 326
317 318 317 317 318 319 320 321 322 321 320 319 317 317 317 317 319 320 320 318 317 320 322 322 323 324 324 323 324 323 324 326 328 329 329 330 329 328 329 331 332 332 331 331 333 333 332 333 333 332 332 331 331 326 325 330 333 332 331 331 331 331 329 328 329 329 329 329 328 328 327 327 327 327 328 328 328 328 329 329 327 327 327 327 326
317 317 317 317 318 319 320 320 320 319 319 317 316 316 316 316 317 317 317 317 318 321 322 323 323 323 323 323 324 324 324 325 326 326 326 326 326 326 325 326 329 331 330 329 330 330 330 332 333 332 332 331 329 325 325 330 332 332 331 331 332 331 330 329 328 329 330 330 329 329 328 328 328 327 327 327 328 328 328 329 328 328 327 327 326
317 316 316 317 317 318 319 319 318 318 316 315 314 314 316 315 314 314 314 317 319 321 322 323 323 322 322 322 322 322 323 324 324 324 324 324 324 325 323 322 324 326 329 328 327 328 327 329 332 332 332 330 328 326 327 331 331 331 331 331 331 330 330 330 329 329 329 330 330 329 329 328 328 327 327 327 327 327 328 329 329 329 328 328 327
316 316 316 316 316 317 317 317 317 316 315 314 312 312 315 315 312 311 313 315 318 319 320 320 318 316 318 320 319 318 317 318 319 321 323 322 322 324 324 324 323 323 327 329 329 328 326 328 330 330 331 330 330 329 329 331 330 328 328 329 330 330 330 330 330 330 329 330 330 329 329 328 328 327 327 327 326 326 327 328 329 329 329 329 328
316 316 316 316 316 315 316 316 316 315 314 312 311 312 315 313 310 309 310 311 311 313 314 313 313 312 314 316 316 315 314 313 316 318 319 320 321 323 323 324 324 325 326 328 328 328 328 329 330 330 330 330 330 330 330 330 329 328 327 329 331 331 332 331 330 331 330 330 329 329 329 328 328 327 327 327 326 325 325 327 328 328 329 329 329
315 316 315 315 315 314 315 316 316 315 313 311 311 313 314 312 310 308 308 307 308 310 310 311 313 313 313 315 315 314 313 314 316 319 318 319 320 321 321 322 323 324 325 325 325 325 326 327 328 328 328 329 329 329 330 330 329 329 329 329 329 330 333 331 328 330 331 330 330 329 329 329 328 327 327 327 326 325 325 326 326 327 328 328 329
315 315 315 315 314 312 313 315 316 314 313 312 313 314 314 313 312 310 309 307 308 310 311 312 314 314 314 315 315 313 313 316 317 318 318 318 318 318 319 320 321 321 322 322 323 323 323 324 326 326 326 327 327 328 329 329 329 330 329 329 329 330 333 330 327 331 330 329 331 330 330 329 328 328 327 326 326 325 326 326 326 326 327 327 328
316 315 315 315 312 308 310 312 314 314 313 313 314 314 314 315 313 311 309 308 309 310 310 310 312 314 314 314 315 313 314 315 316 316 317 317 317 317 318 319 320 320 320 321 321 321 322 322 323 324 325 325 326 326 327 328 329 329 328 329 329 330 331 328 329 332 330 328 329 329 329 328 328 327 327 326 326 326 326 326 326 325 326 326 327
315 315 314 314 311 306 307 309 310 312 313 313 314 315 315 316 314 310 308 308 308 308 308 309 310 312 314 314 315 315 315 314 316 317 317 317 318 317 317 318 318 319 320 320 320 320 320 320 320 321 322 323 324 325 326 326 327 328 328 328 327 327 328 328 329 331 331 330 328 328 328 328 328 328 328 328 327 327 326 326 326 325 326 326 327
315 315 314 314 310 306 306 307 307 310 312 313 314 315 315 316 316 313 309 309 308 308 307 308 309 311 313 313 314 316 316 315 317 317 317 318 317 316 316 316 316 317 318 318 318 318 318 319 319 319 319 320 321 322 323 324 324 325 326 327 326 326 327 327 327 328 329 330 328 328 328 328 328 328 328 329 328 328 328 327 327 327 327 327 327
315 315 315 314 310 306 307 307 308 310 312 314 315 316 316 316 317 315 311 310 309 308 307 306 307 309 311 312 314 316 317 317 317 317 317 315 313 312 313 312 312 312 312 313 314 314 314 315 315 315 316 316 317 319 319 319 320 321 323 323 324 324 325 326 327 327 327 328 328 329 328 328 327 327 327 327 327 327 328 328 328 328 327 327 328
315 315 315 314 311 308 308 309 309 311 312 314 316 316 316 317 317 315 312 310 310 308 307 306 306 306 308 311 313 316 318 317 317 317 316 311 307 307 308 307 307 307 307 307 307 308 308 309 310 310 311 313 313 315 315 316 317 318 319 320 321 322 323 325 325 325 326 327 328 328 327 327 327 326 325 325 325 325 326 328 328 328 328 328 328
315 315 315 315 312 309 309 310 311 312 313 314 315 316 317 318 318 316 312 310 310 309 307 306 306 305 307 309 312 314 317 318 317 317 315 309 305 305 305 306 307 307 306 306 306 305 305 305 306 307 308 309 310 311 312 313 314 315 315 316 317 319 321 322 322 322 324 325 326 326 326 326 326 326 326 325 324 325 326 327 327 328 328 328 328
Wind_Speed
16 15 15 15 15 16 16 17 16 16 17 17 17 18 18 19 20 20 21 21 21 21 21 21 21 21 21 22 21 20 20 19 19 20 20 19 18 17 17 17 16 16 15 16 16 16 15 14 13 13 12 12 13 14 16 16 17 17 18 19 19 19 20 20 21 22 22 21 21 19 18 17 16 16 15 15 15 15 15 16 18 17 16 16 16
19 17 16 15 15 16 16 17 16 16 17 17 17 17 18 19 19 19 20 21 21 21 21 21 21 21 21 21 21 20 20 19 19 19 19 18 17 16 15 15 15 14 14 14 14 15 15 15 14 13 13 13 13 14 15 16 17 17 17 18 18 18 19 20 21 21 21 19 19 19 18 17 16 16 15 15 15 15 15 16 17 17 16 15 15
20 18 17 15 15 16 17 17 17 16 17 17 17 17 18 18 19 18 19 20 20 21 20 21 21 21 21 20 20 19 19 19 18 18 18 17 16 16 15 14 14 14 14 13 14 15 15 15 15 14 14 13 13 13 15 16 18 18 18 18 17 16 18 19 20 19 18 18 19 19 18 17 16 16 15 14 14 14 15 14 14 15 14 14 14
20 19 17 16 14 15 16 17 17 17 17 17 17 17 17 18 18 18 18 19 19 20 20 20 21 21 21 20 19 18 17 17 18 17 17 16 16 15 15 14 14 14 14 13 14 15 15 16 15 15 15 14 13 14 15 16 18 18 18 17 15 16 17 18 18 18 18 18 19 19 19 18 16 15 15 15 14 13 13 13 13 14 13 13 13
21 19 17 17 15 15 15 17 17 17 18 18 17 17 17 17 18 17 18 18 18 17 18 19 19 20 20 20 19 17 16 16 17 17 16 15 15 15 14 14 13 13 13 13 14 15 16 16 16 16 16 15 14 14 15 15 16 17 17 15 14 15 17 17 18 18 18 17 18 19 20 18 17 16 15 14 14 13 13 13 13 13 13 13 13
20 18 17 16 15 15 15 16 17 17 18 18 18 17 17 17 17 17 17 17 16 16 16 17 18 18 18 18 18 17 16 15 15 15 15 14 14 14 14 13 12 12 12 12 13 15 16 16 16 16 16 16 15 15 15 15 15 15 15 14 13 15 17 17 18 18 16 17 18 20 19 18 18 16 14 14 13 13 12 12 12 12 12 12 12
18 17 15 15 14 14 16 15 16 17 17 18 18 17 17 17 17 17 16 16 16 15 15 16 16 17 17 17 17 16 15 14 14 14 14 13 13 13 13 12 12 12 12 12 13 15 16 17 16 16 16 16 15 15 15 15 15 15 14 14 14 15 16 16 16 15 14 16 18 18 18 17 17 15 13 13 13 12 12 12 11 11 11 12 12
17 16 14 14 14 13 15 15 15 16 17 17 18 18 17 17 17 16 16 15 16 15 15 15 15 15 15 15 15 15 14 14 13 13 13 14 13 12 12 11 11 12 13 13 13 14 16 16 16 17 16 16 16 16 15 15 16 15 15 16 15 15 14 14 13 13 13 16 17 17 17 16 15 14 13 12 12 12 11 11 11 11 11 11 12
17 14 13 13 12 12 13 13 14 15 16 17 16 17 17 17 17 16 15 15 15 15 15 14 14 14 14 14 14 13 13 13 12 12 13 14 14 12 12 11 10 11 13 13 14 14 15 16 17 17 16 17 17 16 16 16 16 15 16 16 15 15 14 13 12 12 14 16 17 16 16 15 14 13 12 11 11 11 10 10 10 10 11 11 11
16 13 12 12 11 11 12 12 13 14 15 16 17 16 15 16 16 16 15 15 14 15 14 14 14 13 13 13 12 12 12 12 11 12 12 12 14 13 12 12 10 11 13 13 13 14 15 16 17 16 16 18 17 17 17 16 16 16 16 15 14 14 14 13 13 13 14 15 15 15 14 14 13 13 11 10 9 10 10 10 10 10 10 11 11
15 13 12 11 11 11 12 11 12 13 14 15 16 16 15 14 15 15 15 15 14 14 13 13 13 13 12 11 11 11 11 11 10 11 12 13 14 13 12 12 10 13 14 13 13 14 15 16 17 16 17 18 17 17 17 16 16 15 14 13 12 12 13 13 13 14 14 14 14 15 13 13 13 11 9 7 8 10 10 10 9 9 10 10 11
15 13 12 12 10 10 11 10 11 12 13 14 14 16 16 15 15 16 15 14 14 13 12 12 12 12 12 11 10 10 10 10 9 10 12 13 14 12 12 11 11 13 15 14 14 14 15 16 16 17 18 18 17 17 17 16 14 12 10 9 10 10 11 13 13 14 14 13 14 14 12 11 10 8 7 7 8 9 9 9 9 9 10 10 10
15 13 12 11 10 10 10 10 10 11 12 13 13 14 15 16 17 16 15 14 14 13 12 11 11 11 11 11 10 10 10 10 10 10 10 10 12 12 12 12 12 14 15 14 14 14 15 16 15 16 18 18 17 17 15 13 11 8 6 6 8 9 11 12 12 12 12 12 12 12 11 10 8 7 7 6 7 8 8 8 8 9 10 10 10
16 13 12 11 10 10 10 10 10 11 11 11 12 12 12 14 16 16 16 16 15 14 12 12 11 10 10 10 10 10 10 10 9 9 9 10 11 12 12 12 13 15 15 15 14 14 14 15 16 15 17 17 16 15 13 11 9 6 4 4 7 9 11 12 10 10 10 11 11 11 10 10 8 6 5 7 8 8 7 7 7 9 9 9 9
16 14 13 13 12 10 10 11 11 12 12 11 11 11 11 12 14 15 16 16 16 15 14 12 11 10 10 10 9 9 9 9 8 8 10 11 12 12 11 11 12 14 16 17 15 14 14 15 15 16 15 15 15 14 12 10 8 4 2 3 6 9 10 10 9 8 9 10 10 10 10 11 8 6 6 8 8 6 6 6 7 8 9 9 9
15 15 15 14 13 11 11 11 10 11 11 11 11 11 11 11 12 13 14 16 16 16 14 12 11 10 9 9 9 9 9 8 8 8 9 11 11 11 11 11 11 13 14 17 16 14 14 14 14 15 14 14 14 13 11 9 7 4 2 2 4 8 10 9 8 7 7 8 9 9 10 10 8 7 6 6 6 5 6 5 6 7 8 8 9
15 15 15 13 12 12 12 12 11 11 10 11 11 11 10 10 11 11 13 15 16 16 15 13 11 10 9 8 8 9 9 8 8 8 7 9 9 9 10 10 11 11 12 14 15 14 13 13 12 13 13 13 13 12 11 9 7 5 3 2 2 6 10 9 7 6 7 7 7 7 8 10 9 7 6 6 6 5 5 4 5 7 7 8 8
15 15 14 12 12 12 12 11 12 12 11 11 11 11 10 10 11 10 12 14 16 16 15 13 11 10 9 8 8 8 9 9 8 8 7 7 7 7 8 9 11 10 10 11 12 13 12 12 12 11 12 12 12 13 11 9 7 6 4 3 2 3 7 9 7 6 7 7 7 7 7 9 9 8 7 6 5 5 5 3 5 6 6 7 8
14 14 12 12 12 11 11 10 10 10 10 10 11 11 10 10 9 9 11 14 15 15 14 12 11 10 9 9 8 8 8 8 9 8 8 8 7 6 7 9 11 10 9 9 10 12 13 12 12 11 10 11 11 12 12 10 8 7 5 4 3 3 6 8 8 6 7 7 7 7 7 8 8 9 7 5 5 6 5 3 4 5 5 6 7
14 14 13 12 13 12 11 10 8 8 8 9 9 10 9 8 8 8 10 13 14 14 13 11 10 9 9 9 7 7 7 7 8 8 8 8 8 8 9 10 10 9 9 8 9 11 13 12 11 11 10 9 9 10 12 11 10 8 6 5 5 5 6 7 8 7 7 7 7 7 7 7 7 8 6 5 7 6 5 4 4 5 5 5 6
13 14 14 14 14 13 11 9 8 8 7 7 8 9 9 8 8 8 9 12 13 12 12 10 9 9 9 8 7 7 7 8 8 9 9 9 9 9 9 10 10 9 8 8 9 10 12 12 11 11 10 9 8 9 11 12 11 8 6 6 6 6 6 7 8 7 7 7 6 7 7 7 6 6 5 6 7 5 3 4 4 4 4 5 6
14 15 15 14 14 12 9 7 8 9 8 8 8 8 9 8 9 8 8 10 11 11 11 10 9 9 9 8 7 7 7 8 9 9 10 10 9 9 10 9 10 9 8 8 8 9 11 12 12 11 10 10 9 8 10 12 11 9 6 6 6 7 8 8 8 7 7 6 6 6 6 6 6 6 4 5 5 3 3 5 4 3 2 5 6
17 16 15 14 12 11 8 6 7 9 9 9 9 8 8 8 8 8 8 9 10 10 11 11 10 11 10 8 7 7 6 7 8 9 9 10 9 9 9 9 10 9 8 7 8 9 10 12 13 12 11 11 10 8 8 10 11 9 6 6 8 8 9 10 8 7 6 5 5 5 6 6 6 5 4 4 4 2 3 5 4 3 2 4 5
18 17 15 14 12 10 8 7 7 8 8 8 9 8 8 8 8 8 8 8 9 9 10 11 11 11 11 9 8 7 7 6 8 9 9 10 10 9 9 9 9 9 8 7 8 9 9 11 13 13 13 11 10 9 8 9 10 10 7 6 8 9 9 11 9 7 6 5 5 5 5 5 6 5 3 3 2 1 3 5 4 3 2 3 5
17 16 14 13 11 10 9 9 8 8 7 7 8 7 7 7 7 7 8 8 7 8 8 9 10 12 12 11 10 9 8 7 8 10 10 10 11 10 10 9 9 9 8 8 9 10 11 11 13 14 13 11 10 9 8 8 10 10 8 7 8 10 10 11 10 8 7 5 4 4 4 4 5 5 4 3 2 1 2 5 4 3 3 2 3
16 15 15 13 12 11 10 11 10 9 7 6 6 6 6 6 5 6 7 8 7 6 6 7 8 11 13 12 11 9 9 10 9 9 10 11 11 11 10 10 10 10 9 9 10 11 12 12 13 15 14 12 9 8 7 7 10 11 10 8 8 10 11 11 10 8 7 6 4 4 3 3 4 5 5 4 2 0 1 3 4 4 3 2 1
17 16 16 14 13 13 12 11 11 10 8 7 6 5 5 5 5 6 7 7 6 5 5 5 6 8 11 12 11 10 10 11 10 9 9 10 12 13 11 11 11 11 9 9 10 11 12 12 14 15 14 12 9 7 6 5 8 11 12 9 7 10 11 11 10 9 8 6 5 4 3 3 3 4 5 4 3 2 1 1 3 4 4 3 2
18 17 16 15 14 13 13 11 10 9 8 7 6 5 5 5 6 6 6 6 6 6 5 5 5 5 8 10 10 11 11 11 10 9 8 10 13 15 14 13 13 11 9 9 10 11 12 13 14 15 13 11 9 7 5 4 5 9 12 11 8 9 10 10 10 9 8 7 6 5 4 3 3 4 4 4 3 3 2 1 2 3 3 2 4
20 19 18 16 15 14 14 12 11 9 8 7 6 5 5 5 6 7 7 6 7 6 6 6 5 5 6 7 9 12 11 10 10 9 9 10 13 16 15 14 14 12 10 9 10 10 11 13 14 13 11 10 9 7 5 3 2 4 10 13 11 9 9 9 9 9 9 8 8 7 5 4 4 3 4 4 4 4 3 2 2 2 2 1 2
21 21 19 17 15 15 15 13 12 10 9 8 6 5 5 5 6 6 6 7 8 7 7 7 6 6 6 6 9 10 10 10 10 10 10 10 12 16 16 15 16 14 11 9 9 9 10 12 13 12 11 10 9 7 5 3 3 3 6 11 13 11 9 9 9 9 9 9 9 8 7 6 5 5 4 4 4 4 5 3 3 3 2 2 2
22 21 20 18 17 16 15 14 13 11 10 9 7 6 5 5 6 6 6 7 9 8 8 7 6 6 6 6 7 9 10 11 12 11 11 10 11 15 18 18 16 14 12 10 10 10 10 10 11 11 11 10 8 7 5 5 5 4 5 8 11 12 11 10 10 10 11 11 10 9 9 8 7 7 6 6 5 5 6 5 4 4 4 3 3
23 23 21 20 19 17 16 14 13 12 11 11 9 7 6 5 6 7 7 8 7 8 9 7 6 7 7 8 8 10 11 11 12 11 10 10 9 12 17 18 16 14 12 11 11 10 10 10 10 10 10 9 8 7 7 7 7 6 6 8 10 13 13 12 12 12 12 12 11 11 11 11 10 9 9 8 7 7 6 6 5 5 5 4 3
24 23 22 21 19 18 16 15 14 13 12 11 10 9 7 6 5 5 5 5 5 6 7 6 7 8 9 10 10 11 11 10 11 11 11 10 9 11 15 15 16 16 13 12 11 11 11 12 12 11 10 10 9 8 8 9 9 8 7 8 10 13 14 13 13 12 12 13 12 12 12 12 12 11 11 10 9 9 8 7 7 6 6 5 4
26 24 23 21 20 18 16 16 15 15 14 13 12 11 9 7 5 5 5 4 4 5 5 5 6 8 10 11 11 10 9 9 10 10 11 10 9 10 14 15 16 15 13 12 12 12 12 12 12 12 11 10 10 9 9 10 10 10 10 10 11 13 14 14 13 12 12 12 12 12 13 13 14 13 13 12 11 11 10 9 8 8 7 6 6
28 26 24 22 20 18 16 16 16 16 15 14 12 11 9 7 6 6 7 5 4 5 6 5 5 6 7 7 8 8 6 7 8 9 10 9 7 8 11 14 15 15 15 15 14 14 14 13 12 12 11 11 10 10 10 11 12 13 12 12 12 14 15 16 15 14 13 12 13 13 13 14 14 15 15 14 13 12 12 11 10 9 10 8 7
28 26 24 22 20 18 17 17 17 17 16 14 12 10 8 7 7 7 6 6 6 5 6 6 5 5 4 4 4 4 4 4 5 6 7 7 5 5 9 12 14 16 16 15 15 15 14 15 14 13 12 12 12 11 11 12 13 13 13 13 14 15 17 18 17 15 14 13 13 14 14 15 15 15 16 16 15 14 14 13 12 12 12 11 9
28 27 25 23 21 20 18 18 18 18 16 14 12 9 8 6 6 6 6 5 5 5 6 6 5 4 3 2 2 2 2 2 2 3 3 3 4 6 9 9 10 13 13 13 15 16 16 16 15 13 13 12 12 11 10 10 11 12 12 13 15 17 18 20 19 17 16 16 15 15 15 15 15 16 16 16 16 15 15 15 14 14 14 14 12
29 27 25 23 22 21 20 19 18 18 16 15 12 10 8 7 7 7 6 5 5 6 6 5 5 4 3 2 1 1 2 1 1 2 1 1 3 6 9 9 9 11 12 12 13 14 15 15 16 15 15 14 11 10 9 9 11 11 11 11 14 17 19 21 22 21 20 19 17 17 16 16 16 16 16 16 16 16 16 16 16 16 16 16 14
29 27 25 23 22 22 21 20 19 19 17 15 13 12 10 9 8 8 7 6 6 6 6 5 4 3 3 3 2 1 2 3 3 2 1 1 1 1 4 7 9 10 10 10 9 10 11 13 16 16 15 14 10 10 10 10 11 12 12 11 12 15 18 21 24 24 24 22 21 20 19 18 18 17 17 16 16 16 17 17 17 17 17 17 16
28 27 25 24 23 23 23 22 21 20 18 17 15 14 13 11 9 8 7 7 7 7 6 5 4 3 2 2 2 2 2 3 3 3 3 3 3 3 1 2 6 7 5 5 7 9 10 10 13 13 12 11 9 9 10 10 11 11 11 12 12 13 15 19 23 26 27 26 24 23 22 21 20 18 18 17 16 16 17 17 18 18 18 18 18
27 28 27 26 25 25 25 24 23 21 19 19 18 16 15 13 11 10 9 9 8 7 6 4 3 2 2 2 1 2 3 3 3 3 3 3 4 5 3 2 3 4 0 1 3 6 6 5 7 9 9 8 7 8 9 7 7 7 8 11 14 13 14 17 21 25 27 28 27 26 25 23 22 20 19 18 17 17 16 17 18 18 19 19 19
28 29 28 27 26 25 25 25 24 22 19 19 18 17 16 14 13 11 10 10 8 7 6 4 2 1 2 1 2 3 3 3 3 2 2 3 4 6 7 5 2 0 1 2 1 2 2 2 2 5 6 7 7 7 8 6 3 2 3 5 9 12 14 16 20 23 25 28 28 27 26 25 24 23 21 20 19 18 17 17 17 18 19 19 20
29 30 29 28 27 26 26 26 25 23 20 19 18 18 16 14 12 11 11 10 9 8 6 5 4 4 3 2 2 4 5 4 4 3 2 2 3 7 9 9 8 5 3 5 5 3 2 2 3 2 0 2 4 4 5 5 4 3 0 1 2 3 7 11 16 21 23 26 27 27 27 26 25 24 23 23 21 19 18 18 17 17 18 19 20
27 30 29 29 29 28 28 27 26 24 22 21 20 19 18 15 12 12 11 10 10 9 7 6 4 4 4 3 2 4 4 4 4 5 4 4 4 5 7 8 10 9 6 8 8 7 6 4 3 3 2 3 4 4 4 3 7 6 2 1 1 1 2 3 7 14 19 22 25 26 26 26 25 24 24 24 23 22 20 20 19 19 18 19 20
28 31 32 31 29 28 28 28 27 25 23 22 22 21 20 16 14 13 11 11 11 10 8 6 5 4 3 2 2 3 3 4 5 5 4 4 5 5 5 5 7 9 8 10 10 10 10 9 6 3 2 2 3 4 5 2 4 7 5 3 1 1 1 2 4 6 10 14 19 23 24 24 24 23 23 24 23 23 22 22 22 21 20 20 20
30 32 32 31 29 28 28 28 28 27 25 24 24 22 21 18 17 16 14 13 13 11 8 7 6 6 5 4 3 3 3 3 3 4 4 4 5 5 5 5 5 7 8 9 10 10 10 11 10 7 6 6 5 7 7 5 3 1 3 4 2 2 1 3 3 2 4 6 8 10 13 16 18 19 21 22 22 22 23 23 24 23 22 22 22
31 30 30 30 30 29 29 29 29 28 28 27 25 23 21 20 19 20 18 16 15 12 9 8 7 7 6 5 5 5 4 3 3 4 4 4 4 5 6 7 7 7 7 8 9 10 9 10 10 10 10 8 7 7 7 6 7 6 4 2 2 3 3 3 2 1 4 4 4 7 8 7 7 10 13 16 18 20 21 22 23 24 23 23 23
29 29 31 31 32 31 30 30 30 29 30 29 27 24 23 21 20 21 19 16 14 12 11 9 8 7 6 6 6 5 5 5 4 4 4 4 4 5 5 6 8 8 8 8 9 9 9 8 8 9 10 10 10 8 8 8 7 6 6 6 5 3 2 5 5 3 2 3 6 10 10 9 9 9 9 10 12 15 17 19 21 22 23 23 23
28 30 32 33 33 32 31 32 31 31 31 31 29 26 24 22 21 22 21 17 14 12 12 10 8 7 7 7 7 6 6 5 4 4 4 5 5 6 6 8 10 10 9 9 9 8 9 8 8 9 10 11 11 10 10 10 9 8 7 6 5 5 3 1 1 3 4 4 4 4 8 12 13 13 11 11 13 14 15 16 17 18 19 20 21
26 28 30 32 32 31 31 32 32 32 32 32 30 27 25 24 22 23 23 19 15 14 13 11 9 7 7 8 8 8 7 6 5 4 4 6 8 9 10 11 11 11 11 10 9 10 10 10 10 9 9 9 10 10 10 10 10 9 8 8 8 7 5 4 4 4 3 5 4 3 6 9 10 15 17 16 17 17 17 17 17 17 17 17 16
23 26 29 31 32 31 32 33 33 34 34 33 31 29 27 26 24 24 25 21 18 17 16 14 12 10 9 9 9 9 8 7 5 4 4 6 8 9 9 10 11 12 12 12 12 12 13 12 11 10 10 9 9 8 8 8 8 9 9 10 10 8 6 5 6 7 4 4 5 4 5 7 8 14 18 18 19 19 17 18 17 18 18 18 17
Wind_Direction
172 168 163 162 162 158 152 146 144 144 143 143 138 135 132 129 127 126 126 124 120 118 120 123 126 127 129 130 130 129 125 123 121 121 121 123 123 123 124 124 125 125 126 128 129 130 130 128 127 127 126 124 123 125 125 123 123 121 119 121 122 120 120 119 118 116 115 112 111 111 110 110 106 107 104 100 101 98 97 98 97 93 88 85 83
166 165 164 162 165 158 153 149 146 146 144 145 141 137 135 131 129 129 130 126 122 120 120 124 126 127 128 128 127 125 123 121 121 122 123 123 123 122 123 123 124 124 124 127 131 131 131 131 129 127 126 126 125 126 126 124 125 124 122 123 123 123 122 121 119 116 117 118 118 114 110 110 107 106 102 99 99 97 97 97 97 93 90 87 85
158 162 164 162 165 158 154 152 149 149 146 147 144 141 137 134 132 131 132 128 125 122 122 125 127 128 126 125 124 124 122 121 122 122 123 122 122 121 120 121 123 122 122 127 132 131 130 129 128 127 127 127 128 128 126 126 127 126 127 125 123 125 125 121 119 120 122 121 116 114 112 110 106 103 101 100 98 95 94 93 94 93 92 90 87
159 161 161 160 163 160 158 156 152 150 149 150 147 144 140 138 135 134 134 131 126 123 124 126 128 128 127 127 125 125 124 122 124 124 123 123 121 119 119 120 122 121 120 124 129 130 128 127 127 129 129 128 129 129 128 129 129 128 126 124 124 127 126 125 124 125 125 121 120 120 115 111 109 106 103 101 100 97 95 93 93 92 91 89 87
160 159 159 159 163 164 163 159 156 153 151 151 150 147 144 143 138 136 136 134 128 122 125 127 129 129 128 128 127 126 125 125 126 127 128 125 122 118 119 120 122 122 119 121 125 127 127 127 128 129 129 129 129 130 131 131 131 131 127 126 133 134 132 133 134 132 129 126 124 119 114 114 112 109 106 105 103 100 98 95 93 92 91 88 85
159 157 158 158 162 165 166 164 160 157 154 153 153 151 148 147 143 139 138 137 130 125 126 129 131 130 130 129 128 129 129 130 130 132 132 128 125 121 121 121 122 124 120 121 123 125 126 126 129 130 129 129 131 131 131 132 134 133 129 128 135 139 138 138 139 136 132 126 120 118 119 118 114 112 110 108 105 101 100 97 94 91 91 89 85
158 155 155 158 162 166 167 168 166 161 157 156 156 155 152 150 149 143 141 139 135 132 129 131 133 131 131 132 131 132 135 135 136 138 134 130 128 126 126 124 123 126 124 122 123 126 126 127 130 130 130 131 131 132 132 134 133 130 128 129 136 141 141 141 141 138 133 125 121 120 116 113 112 113 111 108 104 100 99 98 95 91 88 86 86
158 155 154 157 160 166 167 168 170 166 160 159 160 158 156 154 154 150 145 142 140 138 134 133 133 132 132 135 135 136 139 138 142 143 139 137 133 132 130 126 124 126 128 123 123 127 127 128 129 131 132 132 132 133 133 134 131 131 135 136 140 142 142 142 142 141 134 125 121 116 112 112 113 113 111 109 106 101 102 102 98 94 91 87 87
156 157 156 156 156 160 163 166 171 171 166 163 163 163 161 159 158 156 151 145 144 142 138 135 134 135 134 136 138 140 142 140 144 145 149 147 138 141 133 126 125 125 131 125 124 129 130 130 130 132 132 132 134 136 133 132 131 133 138 139 141 142 142 142 141 139 133 125 120 119 118 117 114 111 112 113 112 108 108 107 99 95 92 88 85
152 153 154 154 150 155 162 168 171 175 175 169 165 164 164 164 161 159 157 151 147 146 142 138 136 138 137 137 139 141 142 144 150 149 154 153 145 148 135 130 125 122 132 127 127 132 133 133 133 134 135 136 137 139 135 133 132 131 131 131 134 140 144 144 143 138 132 127 121 120 119 118 116 114 116 117 113 110 106 101 94 94 93 88 84
149 150 148 150 150 155 162 167 171 175 180 178 170 165 165 165 165 164 163 158 152 149 145 142 140 140 141 140 140 141 143 146 154 152 153 153 149 148 136 134 124 121 136 133 129 133 136 138 140 141 141 141 141 141 139 134 130 128 128 127 125 132 142 144 142 136 132 129 125 123 124 126 125 122 121 116 108 108 107 100 95 97 96 90 87
146 147 144 152 152 154 161 167 171 173 181 181 174 169 167 167 170 169 167 164 158 155 151 147 144 143 144 143 143 143 147 150 155 155 156 156 149 145 138 134 121 122 140 140 133 136 142 147 147 148 147 145 145 145 141 134 131 129 132 132 128 127 137 143 140 137 135 134 131 131 134 131 124 122 118 111 106 107 106 101 98 95 93 91 90
141 142 143 149 145 149 159 167 172 171 176 176 176 174 170 171 174 171 167 168 164 162 158 153 150 148 147 146 147 148 152 157 159 160 164 166 150 147 144 136 127 125 140 144 140 140 144 151 151 150 149 148 150 152 149 143 141 142 146 148 144 137 136 141 138 137 139 138 138 138 137 126 118 125 125 115 108 106 105 103 101 96 93 92 91
140 138 138 139 133 143 157 163 168 166 167 169 175 172 168 173 173 173 171 171 169 169 166 160 156 153 152 150 151 151 156 161 164 163 164 165 151 150 151 144 138 130 141 148 143 143 147 151 154 154 153 154 157 161 162 159 159 158 162 159 158 152 140 137 135 132 136 137 140 140 130 120 120 127 121 111 109 110 106 97 99 97 95 94 92
143 134 132 135 133 140 151 158 163 163 164 163 169 166 167 172 168 174 177 174 174 175 172 166 163 159 158 155 155 155 159 162 165 168 159 156 151 152 150 144 142 136 144 152 147 147 154 156 158 160 161 162 162 167 170 168 170 171 168 152 160 162 146 133 129 126 130 135 140 141 128 122 124 121 114 113 118 120 111 101 100 99 97 96 94
144 136 135 138 140 145 148 153 157 159 159 156 163 164 169 173 166 172 178 179 179 180 177 170 166 163 162 158 157 158 161 162 163 169 160 155 153 151 148 143 143 141 146 153 153 153 158 163 163 164 168 172 169 170 174 177 179 176 167 148 162 170 159 138 124 123 127 132 137 140 137 130 126 124 121 121 126 124 113 108 104 98 97 96 94
143 142 142 143 149 154 152 153 155 157 155 151 157 159 164 168 164 169 176 180 182 184 179 172 168 166 167 161 157 162 160 160 163 167 167 161 153 148 149 148 148 147 147 150 155 161 165 168 167 166 171 180 180 179 183 188 187 174 165 161 167 179 175 160 132 122 126 130 132 136 140 136 133 132 128 126 125 113 107 102 96 98 99 97 96
142 145 149 150 154 153 152 153 154 155 154 151 150 151 156 161 162 170 176 181 184 184 179 171 169 168 169 162 159 164 160 158 164 169 174 171 162 160 158 157 157 153 152 153 156 164 173 176 173 170 171 179 186 188 192 191 189 179 171 189 199 192 189 180 159 135 130 130 129 133 139 141 144 142 144 154 139 112 114 111 100 102 101 100 99
142 149 154 155 152 145 142 138 142 146 148 147 144 146 152 161 162 165 172 180 183 180 175 170 169 169 167 160 158 163 162 161 165 171 176 176 174 180 178 169 165 160 158 162 161 166 176 181 180 179 175 176 180 188 195 192 189 184 176 191 206 209 203 193 182 158 142 134 127 132 139 147 154 148 156 173 146 127 133 138 116 104 94 98 101
145 154 154 153 150 144 140 131 132 138 141 139 139 143 148 159 159 158 167 178 181 175 172 171 169 169 161 153 154 160 165 166 171 176 175 177 178 184 186 176 168 164 163 168 170 172 177 182 183 185 183 178 175 183 193 195 188 185 183 185 200 209 210 200 192 178 156 140 128 130 137 147 156 154 162 161 150 153 152 149 133 116 107 105 106
151 158 154 153 155 152 146 140 142 143 143 141 140 141 144 155 156 158 169 175 176 172 172 170 169 169 157 150 158 168 172 174 183 183 176 181 183 182 183 179 174 170 171 175 176 177 180 184 187 187 189 185 179 179 186 192 190 187 185 178 193 207 205 196 192 187 169 149 134 131 136 145 148 153 162 158 167 182 162 147 142 139 134 118 112
161 164 160 159 161 160 153 148 150 149 150 151 151 148 150 159 156 161 172 172 173 178 179 171 171 173 161 160 171 178 180 184 192 186 182 187 184 182 184 183 182 179 177 179 180 182 181 184 189 191 192 189 187 189 182 184 191 193 188 176 186 202 195 183 181 183 176 157 140 131 133 137 137 146 158 163 180 197 166 151 145 156 150 126 122
167 169 165 165 166 166 163 156 155 155 155 156 159 158 161 164 159 164 175 176 179 186 184 173 176 178 170 173 182 186 189 192 197 194 194 193 184 185 188 187 188 184 180 183 186 188 186 184 189 193 196 192 187 196 189 181 189 195 191 176 179 193 185 173 172 177 178 163 144 132 129 133 138 154 167 165 178 201 174 164 155 162 161 135 132
171 173 168 168 171 171 165 159 158 158 159 161 162 161 166 172 169 172 179 181 184 189 190 184 183 184 179 182 190 197 197 195 201 202 202 199 191 188 188 189 190 187 184 189 192 193 194 189 191 195 198 196 186 191 193 182 186 194 195 181 178 186 178 170 171 174 176 171 149 130 126 132 144 163 178 166 179 235 163 169 168 165 169 139 137
176 173 170 169 169 169 163 159 159 158 163 167 164 166 171 178 182 184 187 187 188 192 197 196 192 194 190 190 197 203 204 201 205 206 206 204 198 192 189 189 189 192 196 197 197 198 200 198 196 196 198 200 192 188 191 183 182 189 196 190 180 181 175 171 177 178 178 174 155 138 133 137 149 165 177 174 193 321 144 173 188 192 199 168 139
176 170 168 166 164 164 161 157 156 156 163 168 167 175 178 182 192 193 199 198 193 194 201 200 199 206 204 200 202 209 212 207 209 209 210 208 200 198 195 194 194 198 207 204 203 203 203 203 201 198 200 204 201 195 197 189 182 185 192 195 184 181 178 174 179 182 181 179 164 151 148 145 151 165 174 182 199 234 171 188 208 218 226 224 156
170 167 165 164 164 164 163 158 153 154 158 166 174 185 190 195 203 206 212 209 202 197 199 200 198 210 215 212 208 212 210 206 212 211 213 214 204 201 198 198 202 204 210 209 207 206 202 204 204 201 202 207 210 207 204 194 184 186 191 197 190 182 181 180 181 183 185 186 180 175 171 166 165 171 178 186 195 197 210 229 212 225 249 229 191
167 166 167 168 168 167 167 161 157 158 161 168 179 193 208 211 212 218 220 219 217 206 201 207 201 204 219 218 209 207 204 204 215 213 215 221 210 202 197 198 204 207 208 207 209 206 200 201 203 203 206 209 207 201 201 197 186 189 193 199 200 188 184 186 185 187 191 193 194 193 188 185 181 183 186 190 194 192 205 258 200 222 265 225 195
171 169 171 172 172 173 173 170 167 168 173 181 190 200 220 222 219 224 226 230 230 222 213 210 204 196 208 212 204 205 208 213 222 224 229 230 214 204 201 201 205 208 205 204 205 201 196 197 200 203 206 204 198 194 198 203 196 199 200 202 205 199 192 195 198 197 198 199 203 206 204 203 198 194 196 196 200 198 205 224 207 223 285 270 222
175 173 175 175 175 178 178 178 177 177 183 192 202 211 225 224 222 229 236 241 236 230 222 210 208 208 209 209 205 208 216 224 229 237 243 240 219 204 202 203 207 209 205 202 199 193 190 194 200 201 199 193 190 197 208 227 247 245 219 211 210 209 208 212 215 214 210 205 205 211 215 214 211 211 211 210 212 204 207 217 218 223 245 316 298
177 176 178 178 178 181 182 184 186 187 190 195 204 211 219 216 222 235 240 246 240 231 220 207 206 214 218 220 221 223 226 232 234 243 250 247 228 207 203 203 207 210 205 201 194 188 185 188 196 196 194 193 195 210 233 256 270 276 249 225 218 217 219 222 225 227 224 216 211 214 221 223 221 220 222 225 225 211 207 212 216 220 226 273 312
178 179 180 181 183 186 185 186 190 192 191 193 197 195 202 203 215 231 235 244 243 231 219 207 208 216 221 224 229 232 233 238 241 247 252 253 242 216 210 206 205 211 208 203 197 190 188 187 191 196 200 207 216 234 256 271 278 285 272 243 231 228 229 229 229 232 230 224 219 219 224 228 229 227 227 230 233 225 215 212 216 229 232 245 272
176 177 178 181 184 186 185 185 187 187 183 180 180 176 179 181 189 203 210 225 229 222 214 208 213 214 220 222 224 227 228 236 241 247 251 253 248 223 218 212 205 212 212 208 206 200 199 199 201 208 217 227 239 252 267 277 279 287 287 268 246 236 236 236 236 238 235 229 227 227 229 233 236 233 232 233 236 235 227 218 219 228 234 237 249
171 172 176 179 181 184 183 181 178 175 171 167 167 167 168 163 159 155 153 169 189 200 194 191 204 209 217 220 222 229 231 237 237 241 247 249 246 229 224 217 210 215 213 209 215 214 210 210 214 222 231 240 250 262 274 280 283 287 291 283 261 244 240 239 239 243 242 237 234 234 235 238 243 242 240 238 238 239 235 231 226 227 234 237 241
172 173 176 178 180 184 182 176 169 166 164 163 166 166 167 161 156 143 131 123 134 165 175 174 179 193 209 212 220 230 229 236 237 236 239 237 239 241 236 225 218 220 215 210 214 220 220 216 218 227 237 248 256 267 278 285 286 284 287 286 271 253 244 239 239 244 248 248 246 246 243 242 247 250 249 246 244 243 240 238 235 232 237 241 240
176 175 177 178 180 183 181 173 166 164 162 163 166 165 163 159 161 152 132 115 107 120 146 159 161 172 192 204 219 225 211 222 236 235 235 235 233 241 247 236 225 222 219 217 216 219 224 223 221 225 236 249 259 269 279 289 289 283 282 282 274 263 251 240 237 241 246 251 254 255 252 249 250 253 254 253 251 249 246 243 240 237 241 249 251
179 179 178 179 181 180 180 175 167 165 163 164 164 161 157 155 164 164 144 121 112 115 125 135 140 152 170 191 219 243 251 227 237 240 225 238 229 221 240 241 231 230 226 229 232 227 227 231 232 233 238 246 259 272 285 296 294 286 282 278 272 266 256 245 238 237 241 245 250 255 257 256 256 256 256 256 256 255 253 248 245 241 241 250 256
180 182 181 182 182 178 178 175 169 167 165 164 162 157 153 148 153 161 155 136 132 132 126 123 119 119 114 99 131 265 320 1 318 267 226 236 236 224 240 239 232 239 229 225 235 233 231 237 239 240 243 247 259 272 285 296 291 283 279 279 277 267 257 250 244 242 243 243 246 251 255 259 260 260 260 260 259 257 256 254 250 245 242 248 254
181 181 182 183 182 177 174 172 169 167 165 164 161 154 149 146 146 150 152 141 135 137 135 136 127 115 94 74 60 28 351 14 33 7 20 4 343 260 247 238 231 238 233 223 223 223 222 232 238 238 240 243 254 264 276 290 288 281 271 273 287 278 263 253 248 247 248 247 250 253 255 258 260 261 262 264 263 261 259 257 254 250 248 248 252
181 180 182 183 181 176 172 169 168 168 165 163 160 156 152 151 155 157 151 139 137 143 147 148 131 114 93 68 33 9 348 1 24 26 20 7 1 10 7 260 237 234 239 237 233 227 215 219 233 237 236 236 246 262 275 288 289 285 274 267 277 283 275 264 254 251 251 251 252 255 257 257 258 259 261 263 265 265 262 261 258 255 253 252 252
180 182 184 184 183 179 174 170 169 170 169 167 163 162 162 162 163 163 154 143 144 151 153 153 135 117 92 63 29 359 348 359 11 14 13 5 12 23 28 1 262 233 290 345 262 249 221 210 227 233 238 240 253 273 280 287 291 289 282 270 267 269 275 273 264 256 254 253 253 254 256 257 258 258 258 260 263 264 263 262 261 259 257 255 254
182 185 187 185 184 182 179 173 170 173 175 174 171 169 171 169 166 163 156 150 151 157 160 155 133 106 97 66 35 10 357 3 14 24 17 6 31 50 55 46 40 80 44 68 38 298 224 209 234 239 247 256 268 278 273 273 284 288 291 288 280 272 269 268 264 259 255 254 253 253 255 256 258 258 258 258 259 261 263 262 262 261 259 257 256
186 187 189 187 186 185 183 178 174 175 177 177 174 170 172 172 166 158 154 150 148 152 151 135 105 89 94 79 41 17 3 8 35 67 78 77 73 69 68 67 71 78 79 88 81 60 82 85 55 53 23 324 320 313 291 265 225 199 185 318 303 291 271 261 256 254 254 255 255 255 255 256 258 259 258 258 258 259 260 261 261 262 261 260 259
190 190 189 189 188 188 186 182 178 177 177 177 173 171 172 171 165 157 153 147 143 144 140 128 111 97 96 84 48 21 16 34 64 77 82 82 75 66 64 67 72 79 86 87 86 78 77 83 64 37 29 35 23 17 1 283 220 209 189 142 129 68 266 276 267 257 254 254 255 257 258 258 259 259 258 259 260 260 260 260 261 262 264 264 264
196 193 191 191 189 189 189 186 181 178 178 177 175 175 173 171 168 163 159 149 145 152 155 152 147 133 121 98 56 44 64 85 83 72 60 49 46 49 55 62 70 76 82 84 86 82 76 78 80 55 23 52 65 62 44 8 237 231 219 168 105 106 222 336 338 281 261 257 257 260 261 261 261 261 260 261 263 263 263 263 263 263 264 265 266
201 196 193 192 189 189 191 188 184 180 181 181 179 180 179 178 176 173 170 163 160 167 167 159 156 149 136 118 91 85 104 110 90 67 51 39 40 49 59 68 73 75 78 81 82 77 71 71 72 71 71 79 95 86 63 51 56 333 240 216 235 248 278 356 354 309 295 283 266 267 270 270 269 266 265 267 267 268 268 268 267 266 266 266 266
203 197 194 192 190 191 191 189 185 181 183 185 185 187 187 188 189 185 182 179 175 170 161 154 152 148 140 133 115 99 113 122 96 76 64 51 42 44 52 63 70 73 74 76 74 70 67 64 60 59 61 64 77 80 63 59 66 54 45 48 337 283 278 304 294 307 325 310 299 307 311 311 298 286 281 280 277 276 275 273 272 271 269 268 268
201 196 194 192 191 192 191 189 186 182 185 189 190 192 192 196 200 197 194 191 183 168 158 159 157 153 146 146 139 119 118 123 110 88 74 55 34 35 46 57 65 67 67 67 68 67 64 59 54 50 50 50 55 63 61 59 58 50 54 59 47 29 284 264 251 259 290 296 299 301 308 323 320 311 309 305 297 292 289 285 281 277 274 273 272
198 197 195 191 192 193 191 190 186 184 187 191 194 196 198 203 208 206 203 199 189 172 164 165 163 161 157 154 154 146 139 133 122 102 78 62 55 63 70 70 67 64 62 61 60 57 53 49 44 41 41 46 49 52 56 56 55 51 52 57 50 42 29 19 248 255 242 255 283 294 312 318 311 302 303 307 307 307 305 301 295 289 281 277 277
197 197 195 192 194 195 193 191 188 187 189 193 197 200 202 208 213 211 208 205 195 180 172 172 172 171 167 164 163 159 156 150 138 116 90 82 82 83 80 72 63 55 51 51 50 49 47 44 41 38 37 42 44 44 48 51 52 51 49 51 48 35 33 52 33 347 280 261 277 293 310 315 308 301 302 309 311 309 306 302 298 293 288 283 284
193 195 195 194 195 196 195 194 192 191 192 195 200 204 206 210 215 214 211 208 200 189 182 178 179 182 180 173 169 164 162 158 151 133 108 99 96 88 79 67 55 46 43 45 48 47 46 45 44 42 40 40 39 34 36 37 38 40 41 44 45 42 38 30 6 351 333 302 300 298 297 301 296 292 301 314 313 308 306 302 297 292 288 286 286